Weather in Qui Nhơn

Vietnam     13°46′27″N   109°14′33″E
temp.,
°C
wind,
m/s
gust,
m/s
humid.,
%
clouds,
%
prec.,
mm/h
press.,
hPa
HPBL,
m
27 february, sat
sat2701:00+22s238827 0.0 1009274
04:00+22s238829 0.0 1008302
07:00+23s238746 0.0 1011330
10:00+25sse237757 0.0 1011405
13:00+25se358043 0.0 1009393
16:00+25se24790 0.0 1007366
19:00+24sse11890 0.0 101035
22:00+23wnw12890 0.0 101233
28 february, sun
sun2801:00+23wnw338822 0.1 101298
04:00+22nw339143 0.2 1011101
07:00+23nw238926 0.4 1013104
10:00+25ene248585 0.6 1013441
13:00+26e347988 0.9 1011551
16:00+26e348038 0.1 1009529
19:00+24ese229068 0.4 101163
22:00+24ese229233 0.3 101350
1 march, mon
mon101:00+23e119350 0.5 101229
04:00+24n1192100 0.3 101236
07:00+24nne2290100 0.4 101492
10:00+25ne228256 0.2 1015372
13:00+26e337858 0.3 1012486
16:00+25ene338117 0.0 1011482
19:00+24ene229116 0.0 101278
22:00+24ne119131 0.1 101531
2 march, tue
tue201:00+24n229038 0.1 1014113
04:00+23nnw238839 0.1 1013172
07:00+24nnw228468 0.1 1014101
10:00+26nne227498 0.0 1015539
13:00+25ne337562 0.0 1012432
16:00+25nne558050 0.0 1012630
19:00+24nne578845 0.1 1014495
22:00+24nne478490 0.1 1016411
3 march, wed
wed301:00+24n578595 0.4 1015316
04:00+23nnw358465 0.1 1014272
07:00+23nnw478575 0.1 1016405
10:00+25nne688070 0.3 1017789
13:00+26nne677668 0.4 1013692
16:00+25nne56762 0.0 1012607
19:00+23n34894 0.0 1014217
22:00+23nnw3586100 0.1 1016294